This is the latest recevied weather packets stored in our database for station/object AC2VK-1. If no packets are shown the sender has not sent any weather packets the latest 1 day(s).
| Time | Temp. | Humidity | Pressure | Rain* | Wind** | Luminosity | Snow |
|---|---|---|---|---|---|---|---|
| 1778037555 | 21.11° C | 50% | 1012.6 hPa | 0 mm | 0.45 m/s, 233° | - | - |
| 1778036955 | 21.11° C | 50% | 1012.6 hPa | 0 mm | 0.45 m/s, 245° | - | - |
| 1778036355 | 21.11° C | 50% | 1012.6 hPa | 0 mm | 0 m/s | - | - |
| 1778035755 | 21.11° C | 50% | 1012.6 hPa | 0 mm | 0.45 m/s, 251° | - | - |
| 1778035155 | 21.67° C | 50% | 1012.4 hPa | 0 mm | 0.45 m/s, 173° | - | - |
| 1778034555 | 21.67° C | 49% | 1012.5 hPa | 0 mm | 0.45 m/s, 188° | - | - |
| 1778033955 | 21.67° C | 49% | 1012.8 hPa | 0 mm | 0.45 m/s, 196° | - | - |
| 1778033355 | 21.67° C | 48% | 1012.6 hPa | 0 mm | 0.89 m/s, 168° | - | - |
| 1778032755 | 21.67° C | 47% | 1012.5 hPa | 0 mm | 0.89 m/s, 169° | - | - |
| 1778032155 | 22.22° C | 47% | 1012.3 hPa | 0 mm | 1.79 m/s, 189° | - | - |
| 1778031555 | 22.22° C | 47% | 1012.1 hPa | 0 mm | 1.34 m/s, 216° | - | - |
| 1778030955 | 21.67° C | 47% | 1011.9 hPa | 0 mm | 1.34 m/s, 147° | - | - |
| 1778030355 | 21.67° C | 47% | 1011.8 hPa | 0 mm | 0.89 m/s, 168° | - | - |
| 1778029755 | 21.67° C | 48% | 1011.8 hPa | 0 mm | 0.89 m/s, 133° | - | - |
| 1778029155 | 21.67° C | 48% | 1012 hPa | 0 mm | 0.89 m/s, 168° | - | - |
| 1778028555 | 22.22° C | 48% | 1012.2 hPa | 0 mm | 0.89 m/s, 153° | - | - |
| 1778027955 | 22.22° C | 48% | 1012.3 hPa | 0 mm | 0.89 m/s, 163° | - | - |
| 1778027355 | 22.78° C | 48% | 1012.2 hPa | 0 mm | 0.89 m/s, 177° | - | - |
| 1778026755 | 22.78° C | 47% | 1012.2 hPa | 0 mm | 0.45 m/s, 218° | - | - |
| 1778026155 | 23.33° C | 47% | 1012.3 hPa | 0 mm | 0.89 m/s, 216° | - | - |
| 1778025555 | 23.33° C | 45% | 1012.1 hPa | 0 mm | 0.89 m/s, 248° | - | - |
| 1778024955 | 23.89° C | 45% | 1011.9 hPa | 0 mm | 0.89 m/s, 248° | - | - |
| 1778024355 | 24.44° C | 44% | 1011.9 hPa | 0 mm | 1.34 m/s, 186° | - | - |
| 1778023755 | 24.44° C | 44% | 1011.8 hPa | 0 mm | 0.89 m/s, 259° | - | - |
| 1778023155 | 25° C | 44% | 1011.7 hPa | 0 mm | 1.34 m/s, 183° | - | - |
* Rain latest hour (hover to see other rain measurements)
** Current wind speed in m/s (hover to see current wind gust speed)